Time,TemperatureF,DewpointF,PressureIn,WindDirection,WindDirectionDegrees,WindSpeedMPH,WindSpeedGustMPH,Humidity,HourlyPrecipIn,Conditions,Clouds,dailyrainin,SoftwareType,DateUTC
2013-02-15 00:02:00,32.0,30.0,29.92,SW,217,0.0,-999.0,94,-99.99,,,-99.99,,2013-02-15 05:02:00,
2013-02-15 00:12:00,32.0,30.0,29.92,SW,217,0.0,-999.0,94,-99.99,,,-99.99,,2013-02-15 05:12:00,
2013-02-15 00:22:00,32.0,30.0,29.92,WSW,238,0.0,-999.0,94,-99.99,,,-99.99,,2013-02-15 05:22:00,
2013-02-15 00:32:00,32.0,31.0,29.92,SW,231,0.0,-999.0,95,-99.99,,,-99.99,,2013-02-15 05:32:00,
2013-02-15 00:42:00,32.0,31.0,29.92,SW,231,0.0,-999.0,95,-99.99,,,-99.99,,2013-02-15 05:42:00,
2013-02-15 00:52:00,32.0,30.0,29.92,SW,231,0.0,-999.0,94,-99.99,,,-99.99,,2013-02-15 05:52:00,
2013-02-15 01:02:00,31.0,29.0,29.92,SW,231,0.0,-999.0,94,-99.99,,,-99.99,,2013-02-15 06:02:00,
2013-02-15 01:11:00,31.0,30.0,29.91,SW,231,0.0,-999.0,95,-99.99,,,-99.99,,2013-02-15 06:11:00,
2013-02-15 01:22:00,31.0,30.0,29.91,SW,231,0.0,-999.0,95,-99.99,,,-99.99,,2013-02-15 06:22:00,
2013-02-15 01:32:00,31.0,30.0,29.92,SW,231,0.0,-999.0,95,-99.99,,,-99.99,,2013-02-15 06:32:00,
2013-02-15 01:42:00,31.0,30.0,29.92,SW,231,0.0,-999.0,95,-99.99,,,-99.99,,2013-02-15 06:42:00,
2013-02-15 01:52:00,31.0,30.0,29.91,SW,231,0.0,-999.0,95,-99.99,,,-99.99,,2013-02-15 06:52:00,
2013-02-15 02:01:00,31.0,30.0,29.91,SW,231,0.0,-999.0,95,-99.99,,,-99.99,,2013-02-15 07:01:00,
2013-02-15 02:11:00,31.0,30.0,29.91,SW,231,0.0,-999.0,95,-99.99,,,-99.99,,2013-02-15 07:11:00,
2013-02-15 02:21:00,31.0,30.0,29.90,SW,231,0.0,-999.0,95,-99.99,,,-99.99,,2013-02-15 07:21:00,
2013-02-15 02:32:00,31.0,30.0,29.91,SW,223,0.0,-999.0,96,-99.99,,,-99.99,,2013-02-15 07:32:00,
2013-02-15 02:42:00,31.0,30.0,29.91,SW,223,0.0,-999.0,96,-99.99,,,-99.99,,2013-02-15 07:42:00,
2013-02-15 02:52:00,31.0,30.0,29.91,SW,223,0.0,-999.0,96,-99.99,,,-99.99,,2013-02-15 07:52:00,
2013-02-15 03:01:00,31.0,30.0,29.91,SW,223,0.0,-999.0,96,-99.99,,,-99.99,,2013-02-15 08:01:00,
2013-02-15 03:11:00,31.0,30.0,29.91,SW,223,0.0,-999.0,96,-99.99,,,-99.99,,2013-02-15 08:11:00,
2013-02-15 03:21:00,32.0,31.0,29.91,SW,217,1.0,-999.0,96,-99.99,,,-99.99,,2013-02-15 08:21:00,
2013-02-15 03:32:00,31.0,30.0,29.91,SSW,200,0.0,-999.0,96,-99.99,,,-99.99,,2013-02-15 08:32:00,
2013-02-15 03:42:00,31.0,30.0,29.91,SSW,200,0.0,-999.0,96,-99.99,,,-99.99,,2013-02-15 08:42:00,
2013-02-15 03:53:00,31.0,30.0,29.90,SSW,192,0.0,-999.0,96,-99.99,,,-99.99,,2013-02-15 08:53:00,
2013-02-15 04:02:00,31.0,30.0,29.90,SSW,192,0.0,-999.0,96,-99.99,,,-99.99,,2013-02-15 09:02:00,
2013-02-15 04:12:00,31.0,30.0,29.90,SSW,192,0.0,-999.0,96,-99.99,,,-99.99,,2013-02-15 09:12:00,
2013-02-15 04:21:00,31.0,30.0,29.91,South,190,0.0,-999.0,96,-99.99,,,-99.99,,2013-02-15 09:21:00,
2013-02-15 04:32:00,31.0,30.0,29.91,South,190,0.0,-999.0,95,-99.99,,,-99.99,,2013-02-15 09:32:00,
2013-02-15 04:42:00,31.0,30.0,29.91,South,190,0.0,-999.0,95,-99.99,,,-99.99,,2013-02-15 09:42:00,
2013-02-15 04:52:00,31.0,30.0,29.91,South,190,0.0,-999.0,96,-99.99,,,-99.99,,2013-02-15 09:52:00,
2013-02-15 05:01:00,30.0,29.0,29.91,South,190,0.0,-999.0,95,-99.99,,,-99.99,,2013-02-15 10:01:00,
2013-02-15 05:11:00,30.0,29.0,29.91,South,190,0.0,-999.0,95,-99.99,,,-99.99,,2013-02-15 10:11:00,
2013-02-15 05:21:00,30.0,29.0,29.91,South,190,0.0,-999.0,96,-99.99,,,-99.99,,2013-02-15 10:21:00,
2013-02-15 05:32:00,30.0,29.0,29.91,South,190,0.0,-999.0,96,-99.99,,,-99.99,,2013-02-15 10:32:00,
2013-02-15 05:42:00,30.0,29.0,29.91,South,190,0.0,-999.0,96,-99.99,,,-99.99,,2013-02-15 10:42:00,
2013-02-15 05:52:00,30.0,29.0,29.90,SW,215,0.0,-999.0,96,-99.99,,,-99.99,,2013-02-15 10:52:00,
2013-02-15 06:01:00,30.0,29.0,29.90,SW,214,0.0,-999.0,96,-99.99,,,-99.99,,2013-02-15 11:01:00,
2013-02-15 06:11:00,30.0,29.0,29.90,SW,214,0.0,-999.0,96,-99.99,,,-99.99,,2013-02-15 11:11:00,
2013-02-15 06:23:00,30.0,29.0,29.90,SW,214,0.0,-999.0,96,-99.99,,,-99.99,,2013-02-15 11:23:00,
2013-02-15 06:32:00,31.0,30.0,29.90,SW,214,0.0,-999.0,96,-99.99,,,-99.99,,2013-02-15 11:32:00,
2013-02-15 06:42:00,31.0,30.0,29.90,SW,214,0.0,-999.0,96,-99.99,,,-99.99,,2013-02-15 11:42:00,
2013-02-15 06:52:00,31.0,30.0,29.90,SW,215,0.0,-999.0,96,-99.99,,,-99.99,,2013-02-15 11:52:00,
2013-02-15 07:02:00,31.0,30.0,29.89,SW,217,1.0,-999.0,96,-99.99,,,-99.99,,2013-02-15 12:02:00,
2013-02-15 07:11:00,31.0,30.0,29.89,SW,217,1.0,-999.0,96,-99.99,,,-99.99,,2013-02-15 12:11:00,
2013-02-15 07:22:00,32.0,31.0,29.90,SW,219,1.0,-999.0,96,-99.99,,,-99.99,,2013-02-15 12:22:00,
2013-02-15 07:32:00,32.0,31.0,29.90,SW,219,1.0,-999.0,96,-99.99,,,-99.99,,2013-02-15 12:32:00,
2013-02-15 07:42:00,32.0,31.0,29.90,SW,219,1.0,-999.0,96,-99.99,,,-99.99,,2013-02-15 12:42:00,
2013-02-15 07:52:00,33.0,32.0,29.91,SW,225,1.0,-999.0,96,-99.99,,,-99.99,,2013-02-15 12:52:00,
2013-02-15 08:02:00,33.0,32.0,29.91,SSW,199,0.0,-999.0,96,-99.99,,,-99.99,,2013-02-15 13:02:00,
2013-02-15 08:11:00,33.0,32.0,29.91,SSW,199,0.0,-999.0,96,-99.99,,,-99.99,,2013-02-15 13:11:00,
2013-02-15 08:22:00,33.0,32.0,29.92,South,180,1.0,-999.0,96,-99.99,,,-99.99,,2013-02-15 13:22:00,
2013-02-15 08:32:00,34.0,33.0,29.93,South,182,1.0,-999.0,97,-99.99,,,-99.99,,2013-02-15 13:32:00,
2013-02-15 08:42:00,34.0,33.0,29.93,South,182,1.0,-999.0,97,-99.99,,,-99.99,,2013-02-15 13:42:00,
2013-02-15 08:52:00,35.0,34.0,29.93,SSW,206,1.0,-999.0,97,-99.99,,,-99.99,,2013-02-15 13:52:00,
2013-02-15 09:01:00,35.0,34.0,29.93,SW,232,1.0,-999.0,97,-99.99,,,-99.99,,2013-02-15 14:01:00,
2013-02-15 09:12:00,35.0,34.0,29.93,SW,232,1.0,-999.0,97,-99.99,,,-99.99,,2013-02-15 14:12:00,
2013-02-15 09:21:00,37.0,36.0,29.93,South,173,2.0,-999.0,97,-99.99,,,-99.99,,2013-02-15 14:21:00,
2013-02-15 09:32:00,39.0,38.0,29.93,SW,236,2.0,-999.0,96,-99.99,,,-99.99,,2013-02-15 14:32:00,
2013-02-15 09:42:00,39.0,38.0,29.93,SW,236,2.0,-999.0,96,-99.99,,,-99.99,,2013-02-15 14:42:00,
2013-02-15 09:52:00,40.0,38.0,29.92,South,180,2.0,-999.0,93,-99.99,,,-99.99,,2013-02-15 14:52:00,
2013-02-15 10:02:00,42.0,40.0,29.93,WSW,251,2.0,-999.0,91,-99.99,,,-99.99,,2013-02-15 15:02:00,
2013-02-15 10:11:00,42.0,40.0,29.93,WSW,251,2.0,-999.0,91,-99.99,,,-99.99,,2013-02-15 15:11:00,
2013-02-15 10:22:00,43.0,39.0,29.92,WSW,244,3.0,-999.0,87,-99.99,,,-99.99,,2013-02-15 15:22:00,
2013-02-15 10:32:00,45.0,40.0,29.92,SSW,194,2.0,-999.0,83,-99.99,,,-99.99,,2013-02-15 15:32:00,
2013-02-15 10:42:00,45.0,40.0,29.92,SSW,194,2.0,-999.0,83,-99.99,,,-99.99,,2013-02-15 15:42:00,
2013-02-15 10:52:00,47.0,40.0,29.92,NW,309,2.0,-999.0,76,-99.99,,,-99.99,,2013-02-15 15:52:00,
2013-02-15 11:02:00,48.0,40.0,29.92,SW,222,2.0,-999.0,73,-99.99,,,-99.99,,2013-02-15 16:02:00,
2013-02-15 11:11:00,48.0,40.0,29.92,SW,222,2.0,-999.0,73,-99.99,,,-99.99,,2013-02-15 16:11:00,
2013-02-15 11:22:00,49.0,40.0,29.92,WSW,254,3.0,-999.0,70,-99.99,,,-99.99,,2013-02-15 16:22:00,
2013-02-15 11:32:00,49.0,40.0,29.92,WSW,254,3.0,-999.0,70,-99.99,,,-99.99,,2013-02-15 16:32:00,
2013-02-15 11:42:00,49.0,40.0,29.92,WSW,254,3.0,-999.0,70,-99.99,,,-99.99,,2013-02-15 16:42:00,
2013-02-15 11:52:00,51.0,40.0,29.91,WSW,252,2.0,-999.0,65,-99.99,,,-99.99,,2013-02-15 16:52:00,
2013-02-15 12:01:00,52.0,39.0,29.90,SSW,213,3.0,-999.0,61,-99.99,,,-99.99,,2013-02-15 17:01:00,
2013-02-15 12:11:00,53.0,39.0,29.90,West,271,2.0,-999.0,60,-99.99,,,-99.99,,2013-02-15 17:11:00,
2013-02-15 12:21:00,53.0,39.0,29.90,West,271,2.0,-999.0,60,-99.99,,,-99.99,,2013-02-15 17:21:00,
2013-02-15 12:32:00,54.0,39.0,29.89,SSW,207,1.0,-999.0,57,-99.99,,,-99.99,,2013-02-15 17:32:00,
2013-02-15 12:42:00,54.0,39.0,29.89,SSW,207,1.0,-999.0,57,-99.99,,,-99.99,,2013-02-15 17:42:00,
2013-02-15 12:52:00,55.0,40.0,29.88,SSW,205,2.0,-999.0,57,-99.99,,,-99.99,,2013-02-15 17:52:00,
2013-02-15 13:02:00,55.0,40.0,29.88,SW,232,2.0,-999.0,56,-99.99,,,-99.99,,2013-02-15 18:02:00,
2013-02-15 13:12:00,55.0,40.0,29.88,SW,232,2.0,-999.0,56,-99.99,,,-99.99,,2013-02-15 18:12:00,
2013-02-15 13:21:00,57.0,40.0,29.87,WSW,252,2.0,-999.0,52,-99.99,,,-99.99,,2013-02-15 18:21:00,
2013-02-15 13:32:00,57.0,39.0,29.86,SW,216,3.0,-999.0,51,-99.99,,,-99.99,,2013-02-15 18:32:00,
2013-02-15 13:42:00,57.0,39.0,29.86,SW,216,3.0,-999.0,51,-99.99,,,-99.99,,2013-02-15 18:42:00,
2013-02-15 13:52:00,57.0,39.0,29.85,West,262,3.0,-999.0,50,-99.99,,,-99.99,,2013-02-15 18:52:00,
2013-02-15 14:02:00,58.0,39.0,29.84,SW,224,2.0,-999.0,49,-99.99,,,-99.99,,2013-02-15 19:02:00,
2013-02-15 14:11:00,58.0,39.0,29.84,SW,224,2.0,-999.0,49,-99.99,,,-99.99,,2013-02-15 19:11:00,
2013-02-15 14:22:00,58.0,38.0,29.83,SSW,202,3.0,-999.0,47,-99.99,,,-99.99,,2013-02-15 19:22:00,
2013-02-15 14:32:00,59.0,37.0,29.83,WSW,255,4.0,-999.0,44,-99.99,,,-99.99,,2013-02-15 19:32:00,
2013-02-15 14:42:00,59.0,37.0,29.83,WSW,255,4.0,-999.0,44,-99.99,,,-99.99,,2013-02-15 19:42:00,
2013-02-15 14:52:00,59.0,37.0,29.82,West,267,4.0,-999.0,44,-99.99,,,-99.99,,2013-02-15 19:52:00,
2013-02-15 15:01:00,60.0,37.0,29.81,SW,232,4.0,-999.0,43,-99.99,,,-99.99,,2013-02-15 20:01:00,
2013-02-15 15:11:00,60.0,37.0,29.81,SW,232,4.0,-999.0,43,-99.99,,,-99.99,,2013-02-15 20:11:00,
2013-02-15 15:21:00,60.0,37.0,29.81,SW,233,3.0,-999.0,43,-99.99,,,-99.99,,2013-02-15 20:21:00,
2013-02-15 15:32:00,60.0,36.0,29.80,WSW,255,3.0,-999.0,41,-99.99,,,-99.99,,2013-02-15 20:32:00,
2013-02-15 15:42:00,60.0,36.0,29.80,WSW,255,3.0,-999.0,41,-99.99,,,-99.99,,2013-02-15 20:42:00,
2013-02-15 15:52:00,60.0,34.0,29.80,SSE,157,5.0,-999.0,38,-99.99,,,-99.99,,2013-02-15 20:52:00,
2013-02-15 16:02:00,60.0,35.0,29.80,West,261,4.0,-999.0,39,-99.99,,,-99.99,,2013-02-15 21:02:00,
2013-02-15 16:11:00,60.0,35.0,29.80,West,261,4.0,-999.0,39,-99.99,,,-99.99,,2013-02-15 21:11:00,
2013-02-15 16:22:00,60.0,35.0,29.81,West,267,3.0,-999.0,39,-99.99,,,-99.99,,2013-02-15 21:22:00,
2013-02-15 16:32:00,59.0,35.0,29.81,SW,232,2.0,-999.0,41,-99.99,,,-99.99,,2013-02-15 21:32:00,
2013-02-15 16:42:00,59.0,35.0,29.81,SW,232,2.0,-999.0,41,-99.99,,,-99.99,,2013-02-15 21:42:00,
2013-02-15 16:52:00,57.0,41.0,29.81,SW,232,3.0,-999.0,54,-99.99,,,-99.99,,2013-02-15 21:52:00,
2013-02-15 17:02:00,55.0,40.0,29.82,SSW,203,3.0,-999.0,57,-99.99,,,-99.99,,2013-02-15 22:02:00,
2013-02-15 17:11:00,55.0,40.0,29.82,SSW,203,3.0,-999.0,57,-99.99,,,-99.99,,2013-02-15 22:11:00,
2013-02-15 17:22:00,54.0,40.0,29.82,SW,217,4.0,-999.0,58,-99.99,,,-99.99,,2013-02-15 22:22:00,
2013-02-15 17:32:00,52.0,39.0,29.82,South,171,2.0,-999.0,61,-99.99,,,-99.99,,2013-02-15 22:32:00,
2013-02-15 17:42:00,52.0,39.0,29.82,South,171,2.0,-999.0,61,-99.99,,,-99.99,,2013-02-15 22:42:00,
2013-02-15 17:52:00,51.0,39.0,29.82,SW,232,2.0,-999.0,63,-99.99,,,-99.99,,2013-02-15 22:52:00,
2013-02-15 18:02:00,49.0,38.0,29.82,SW,217,2.0,-999.0,66,-99.99,,,-99.99,,2013-02-15 23:02:00,
2013-02-15 18:11:00,49.0,38.0,29.82,SW,217,2.0,-999.0,66,-99.99,,,-99.99,,2013-02-15 23:11:00,
2013-02-15 18:21:00,48.0,38.0,29.82,SSW,192,1.0,-999.0,68,-99.99,,,-99.99,,2013-02-15 23:21:00,
2013-02-15 18:32:00,48.0,38.0,29.82,SSW,192,1.0,-999.0,68,-99.99,,,-99.99,,2013-02-15 23:32:00,
2013-02-15 18:42:00,48.0,38.0,29.82,SSW,192,1.0,-999.0,68,-99.99,,,-99.99,,2013-02-15 23:42:00,
2013-02-15 18:52:00,46.0,37.0,29.82,South,190,1.0,-999.0,71,-99.99,,,-99.99,,2013-02-15 23:52:00,
2013-02-15 19:02:00,46.0,37.0,29.82,SW,235,2.0,-999.0,71,-99.99,,,-99.99,,2013-02-16 00:02:00,
2013-02-15 19:11:00,46.0,37.0,29.82,SW,235,2.0,-999.0,71,-99.99,,,-99.99,,2013-02-16 00:11:00,
2013-02-15 19:22:00,45.0,36.0,29.82,SSE,162,2.0,-999.0,71,-99.99,,,-99.99,,2013-02-16 00:22:00,
2013-02-15 19:32:00,44.0,35.0,29.82,SSW,207,2.0,-999.0,71,-99.99,,,-99.99,,2013-02-16 00:32:00,
2013-02-15 19:42:00,44.0,35.0,29.82,SSW,207,2.0,-999.0,71,-99.99,,,-99.99,,2013-02-16 00:42:00,
2013-02-15 19:51:00,44.0,36.0,29.83,SSE,161,1.0,-999.0,72,-99.99,,,-99.99,,2013-02-16 00:51:00,
2013-02-15 20:02:00,43.0,35.0,29.82,SSW,202,1.0,-999.0,73,-99.99,,,-99.99,,2013-02-16 01:02:00,
2013-02-15 20:11:00,43.0,35.0,29.82,SSW,202,1.0,-999.0,73,-99.99,,,-99.99,,2013-02-16 01:11:00,
2013-02-15 20:21:00,43.0,35.0,29.82,South,182,1.0,-999.0,74,-99.99,,,-99.99,,2013-02-16 01:21:00,
2013-02-15 20:32:00,43.0,35.0,29.82,SW,219,2.0,-999.0,73,-99.99,,,-99.99,,2013-02-16 01:32:00,
2013-02-15 20:42:00,43.0,35.0,29.82,SW,219,2.0,-999.0,73,-99.99,,,-99.99,,2013-02-16 01:42:00,
2013-02-15 20:52:00,43.0,35.0,29.82,SSW,201,2.0,-999.0,73,-99.99,,,-99.99,,2013-02-16 01:52:00,
2013-02-15 21:01:00,43.0,35.0,29.82,SSW,206,0.0,-999.0,73,-99.99,,,-99.99,,2013-02-16 02:01:00,
2013-02-15 21:11:00,43.0,35.0,29.82,SSW,206,0.0,-999.0,73,-99.99,,,-99.99,,2013-02-16 02:11:00,
2013-02-15 21:22:00,43.0,36.0,29.83,SW,229,2.0,-999.0,75,-99.99,,,-99.99,,2013-02-16 02:22:00,
2013-02-15 21:32:00,42.0,35.0,29.82,SW,215,1.0,-999.0,76,-99.99,,,-99.99,,2013-02-16 02:32:00,
2013-02-15 21:42:00,42.0,35.0,29.82,SW,215,1.0,-999.0,76,-99.99,,,-99.99,,2013-02-16 02:42:00,
2013-02-15 21:52:00,42.0,36.0,29.83,SW,215,0.0,-999.0,78,-99.99,,,-99.99,,2013-02-16 02:52:00,
2013-02-15 22:02:00,41.0,35.0,29.83,SW,227,0.0,-999.0,80,-99.99,,,-99.99,,2013-02-16 03:02:00,
2013-02-15 22:11:00,41.0,35.0,29.83,SW,227,0.0,-999.0,80,-99.99,,,-99.99,,2013-02-16 03:11:00,
2013-02-15 22:21:00,41.0,35.0,29.84,SW,227,0.0,-999.0,80,-99.99,,,-99.99,,2013-02-16 03:21:00,
2013-02-15 22:32:00,41.0,35.0,29.84,SSE,154,0.0,-999.0,80,-99.99,,,-99.99,,2013-02-16 03:32:00,
2013-02-15 22:42:00,41.0,35.0,29.84,SSE,154,0.0,-999.0,80,-99.99,,,-99.99,,2013-02-16 03:42:00,
2013-02-15 22:52:00,42.0,36.0,29.83,SW,228,1.0,-999.0,79,-99.99,,,-99.99,,2013-02-16 03:52:00,
2013-02-15 23:01:00,42.0,35.0,29.83,WSW,242,1.0,-999.0,77,-99.99,,,-99.99,,2013-02-16 04:01:00,
2013-02-15 23:11:00,42.0,35.0,29.83,WSW,242,1.0,-999.0,77,-99.99,,,-99.99,,2013-02-16 04:11:00,
2013-02-15 23:21:00,43.0,36.0,29.83,WSW,249,1.0,-999.0,76,-99.99,,,-99.99,,2013-02-16 04:21:00,
2013-02-15 23:32:00,43.0,36.0,29.83,SSW,200,0.0,-999.0,76,-99.99,,,-99.99,,2013-02-16 04:32:00,
2013-02-15 23:42:00,43.0,36.0,29.83,SSW,200,0.0,-999.0,76,-99.99,,,-99.99,,2013-02-16 04:42:00,
2013-02-15 23:51:00,42.0,35.0,29.84,WSW,239,0.0,-999.0,76,-99.99,,,-99.99,,2013-02-16 04:51:00,